sat.trackr.live / text

‹ back to catalog

STARLINK-5329

NORAD 56513 · 2023-065L

PAYLOAD ACTIVE UNKNOWN

§ Identity

Operator
Country
US
Launch date
2023-05-14
Launch site
AFETR
Launch vehicle
Mass (kg)
RCS (m²)

Purposes: comms

External: N2YO · Heavens-Above · Gunter

§ Orbital elements

Epoch: 2026-05-24T10:11:54.161088Z

Period
94.27 min
Inclination
43.0011°
Eccentricity
0.0001147
Mean motion
15.27577235 rev/d
Perigee alt
482.3 km
Apogee alt
483.8 km
Semi-major
6,861.2 km
B*
1.2103e-5
RAAN
144.6660°
Arg perigee
270.1493°
Mean anomaly
89.9228°
Rev number
16,818

§ Raw data

STARLINK-53291 56513U 23065L   26144.42493242  .00000071  00000+0  12103-4 0  99912 56513  43.0011 144.6660 0001147 270.1493  89.9228 15.27577235168183

JSON: /api/v1/satellites/56513 · /tle

For live sub-satellite position, see the globe view (requires WebGL).

§ Visibility from observer

Set your observer location to see the next 7 days of passes ≥ 10°. The values pass through the URL so the page stays shareable.

No JS? Fill the form by hand. The geolocation button needs JavaScript.